Time,TemperatureF,DewpointF,PressureIn,WindDirection,WindDirectionDegrees,WindSpeedMPH,WindSpeedGustMPH,Humidity,HourlyPrecipIn,Conditions,Clouds,dailyrainin,SoftwareType,DateUTC
2013-02-20 00:00:00,32.4,29.5,29.59,North,0,0.0,7.0,89,0.00,OVC,,0.00,WeatherDisplay:10.37,2013-02-20 05:00:00,
2013-02-20 00:03:00,32.2,29.3,29.57,NNE,22,4.6,4.6,89,0.00,OVC,,0.00,WeatherDisplay:10.37,2013-02-20 05:03:00,
2013-02-20 00:08:00,32.1,29.2,29.57,NNE,22,6.0,6.0,89,0.00,OVC,,0.00,WeatherDisplay:10.37,2013-02-20 05:08:00,
2013-02-20 00:13:00,32.1,29.2,29.57,ENE,68,4.6,4.6,89,0.00,OVC,,0.00,WeatherDisplay:10.37,2013-02-20 05:13:00,
2013-02-20 00:16:00,32.2,29.3,29.57,East,90,5.8,5.8,89,0.00,OVC,,0.00,WeatherDisplay:10.37,2013-02-20 05:16:00,
2013-02-20 00:21:00,32.1,29.2,29.57,North,360,4.4,4.4,89,0.00,OVC,,0.00,WeatherDisplay:10.37,2013-02-20 05:21:00,
2013-02-20 00:26:00,31.9,29.1,29.57,NNW,338,10.4,10.4,89,0.00,OVC,,0.00,WeatherDisplay:10.37,2013-02-20 05:26:00,
2013-02-20 00:31:00,31.7,28.8,29.57,NW,315,10.8,10.8,89,0.00,OVC,,0.00,WeatherDisplay:10.37,2013-02-20 05:31:00,
2013-02-20 00:36:00,31.5,28.6,29.57,West,270,14.7,14.7,89,0.00,OVC,,0.00,WeatherDisplay:10.37,2013-02-20 05:36:00,
2013-02-20 00:41:00,31.2,28.3,29.57,WNW,292,10.4,10.4,89,0.00,OVC,,0.00,WeatherDisplay:10.37,2013-02-20 05:41:00,
2013-02-20 00:46:00,31.3,28.5,29.57,NE,45,12.7,12.7,89,0.00,OVC,,0.00,WeatherDisplay:10.37,2013-02-20 05:46:00,
2013-02-20 00:51:00,31.0,28.1,29.57,WNW,292,8.3,8.3,89,0.00,OVC,,0.00,WeatherDisplay:10.37,2013-02-20 05:51:00,
2013-02-20 00:57:00,30.3,27.5,29.57,West,270,16.1,16.1,89,0.00,OVC,,0.00,WeatherDisplay:10.37,2013-02-20 05:57:00,
2013-02-20 01:02:00,29.8,26.9,29.58,NE,45,11.5,11.5,89,0.00,OVC,,0.00,WeatherDisplay:10.37,2013-02-20 06:02:00,
2013-02-20 01:07:00,29.2,26.4,29.58,NNW,338,10.3,10.3,89,0.00,OVC,,0.00,WeatherDisplay:10.37,2013-02-20 06:07:00,
2013-02-20 01:12:00,28.9,26.1,29.58,NNW,338,11.6,11.6,89,0.00,OVC,,0.00,WeatherDisplay:10.37,2013-02-20 06:12:00,
2013-02-20 01:17:00,28.7,25.9,29.58,NW,315,14.7,14.7,89,0.00,OVC,,0.00,WeatherDisplay:10.37,2013-02-20 06:17:00,
2013-02-20 01:22:00,28.6,25.8,29.58,North,360,9.2,9.2,89,0.00,OVC,,0.00,WeatherDisplay:10.37,2013-02-20 06:22:00,
2013-02-20 01:27:00,28.6,25.8,29.58,NNE,22,13.8,13.8,89,0.00,OVC,,0.00,WeatherDisplay:10.37,2013-02-20 06:27:00,
2013-02-20 01:32:00,28.6,25.8,29.58,NW,315,5.8,5.8,89,0.00,OVC,,0.00,WeatherDisplay:10.37,2013-02-20 06:32:00,
2013-02-20 01:37:00,28.6,25.8,29.58,NNE,22,10.4,10.4,89,0.00,OVC,,0.00,WeatherDisplay:10.37,2013-02-20 06:37:00,
2013-02-20 01:42:00,28.2,25.4,29.58,WNW,292,8.1,8.1,89,0.00,OVC,,0.00,WeatherDisplay:10.37,2013-02-20 06:42:00,
2013-02-20 01:47:00,28.5,25.6,29.58,West,270,9.2,9.2,89,0.00,OVC,,0.00,WeatherDisplay:10.37,2013-02-20 06:47:00,
2013-02-20 01:53:00,28.0,25.1,29.58,NNE,22,3.5,3.5,89,0.00,OVC,,0.00,WeatherDisplay:10.37,2013-02-20 06:53:00,
2013-02-20 01:58:00,28.0,25.2,29.58,NE,45,6.9,6.9,89,0.00,OVC,,0.00,WeatherDisplay:10.37,2013-02-20 06:58:00,
2013-02-20 02:03:00,27.6,24.7,29.61,NNW,338,11.5,11.5,89,0.00,OVC,,0.00,WeatherDisplay:10.37,2013-02-20 07:03:00,
2013-02-20 02:08:00,27.6,24.8,29.61,NE,45,6.9,6.9,89,0.00,OVC,,0.00,WeatherDisplay:10.37,2013-02-20 07:08:00,
2013-02-20 02:13:00,27.5,24.7,29.61,ENE,68,1.5,0.0,89,0.00,OVC,,0.00,WeatherDisplay:10.37,2013-02-20 07:13:00,
2013-02-20 02:18:00,27.4,24.6,29.61,North,360,5.0,5.0,89,0.00,OVC,,0.00,WeatherDisplay:10.37,2013-02-20 07:18:00,
2013-02-20 02:23:00,27.2,24.4,29.61,NW,315,9.2,9.2,89,0.00,OVC,,0.00,WeatherDisplay:10.37,2013-02-20 07:23:00,
2013-02-20 02:28:00,26.8,24.0,29.61,NE,45,4.6,4.6,89,0.00,OVC,,0.00,WeatherDisplay:10.37,2013-02-20 07:28:00,
2013-02-20 02:33:00,26.8,24.0,29.61,North,360,6.9,6.9,89,0.00,OVC,,0.00,WeatherDisplay:10.37,2013-02-20 07:33:00,
2013-02-20 02:38:00,26.7,23.9,29.61,NNE,22,5.8,5.8,89,0.00,OVC,,0.00,WeatherDisplay:10.37,2013-02-20 07:38:00,
2013-02-20 02:43:00,26.8,24.0,29.61,North,360,5.8,5.8,89,0.00,OVC,,0.00,WeatherDisplay:10.37,2013-02-20 07:43:00,
2013-02-20 02:48:00,26.8,24.0,29.61,North,360,10.5,10.5,89,0.00,OVC,,0.00,WeatherDisplay:10.37,2013-02-20 07:48:00,
2013-02-20 02:53:00,26.5,23.7,29.61,North,360,5.8,5.8,89,0.00,OVC,,0.00,WeatherDisplay:10.37,2013-02-20 07:53:00,
2013-02-20 02:58:00,26.4,23.6,29.61,NNW,338,13.8,13.8,89,0.00,OVC,,0.00,WeatherDisplay:10.37,2013-02-20 07:58:00,
2013-02-20 03:05:00,25.9,23.1,29.61,NNW,338,11.5,11.5,89,0.00,OVC,,0.00,WeatherDisplay:10.37,2013-02-20 08:05:00,
2013-02-20 03:10:00,26.1,23.3,29.61,West,270,10.4,10.4,89,0.00,OVC,,0.00,WeatherDisplay:10.37,2013-02-20 08:10:00,
2013-02-20 03:15:00,26.3,23.5,29.61,West,270,8.1,8.1,89,0.00,OVC,,0.00,WeatherDisplay:10.37,2013-02-20 08:15:00,
2013-02-20 03:20:00,26.2,23.4,29.61,SW,225,12.7,12.7,89,0.00,OVC,,0.00,WeatherDisplay:10.37,2013-02-20 08:20:00,
2013-02-20 03:25:00,25.7,22.9,29.61,North,360,18.4,18.4,89,0.00,OVC,,0.00,WeatherDisplay:10.37,2013-02-20 08:25:00,
2013-02-20 03:30:00,25.5,22.7,29.61,West,270,11.5,11.5,89,0.00,OVC,,0.00,WeatherDisplay:10.37,2013-02-20 08:30:00,
2013-02-20 03:35:00,25.5,22.7,29.61,SW,225,11.5,11.5,89,0.00,OVC,,0.00,WeatherDisplay:10.37,2013-02-20 08:35:00,
2013-02-20 03:40:00,25.2,22.4,29.61,West,270,16.1,16.1,89,0.00,OVC,,0.00,WeatherDisplay:10.37,2013-02-20 08:40:00,
2013-02-20 03:45:00,25.3,22.5,29.61,NNW,338,11.0,11.0,89,0.00,OVC,,0.00,WeatherDisplay:10.37,2013-02-20 08:45:00,
2013-02-20 03:50:00,25.0,22.2,29.61,East,90,10.4,10.4,89,0.00,OVC,,0.00,WeatherDisplay:10.37,2013-02-20 08:50:00,
2013-02-20 03:55:00,24.8,22.0,29.61,NW,315,12.7,12.7,89,0.00,OVC,,0.00,WeatherDisplay:10.37,2013-02-20 08:55:00,
2013-02-20 04:00:00,24.9,22.1,29.61,WNW,292,17.3,17.3,89,0.00,OVC,,0.00,WeatherDisplay:10.37,2013-02-20 09:00:00,
2013-02-20 04:05:00,24.6,21.9,29.61,ENE,68,13.8,13.8,89,0.00,OVC,,0.00,WeatherDisplay:10.37,2013-02-20 09:05:00,
2013-02-20 04:10:00,24.5,21.7,29.61,East,90,11.5,11.5,89,0.00,OVC,,0.00,WeatherDisplay:10.37,2013-02-20 09:10:00,
2013-02-20 04:15:00,24.0,21.2,29.61,North,360,16.1,16.1,89,0.00,OVC,,0.00,WeatherDisplay:10.37,2013-02-20 09:15:00,
2013-02-20 04:20:00,23.7,20.9,29.61,NW,315,11.5,11.5,89,0.00,OVC,,0.00,WeatherDisplay:10.37,2013-02-20 09:20:00,
2013-02-20 04:25:00,23.6,20.8,29.61,East,90,9.2,9.2,89,0.00,OVC,,0.00,WeatherDisplay:10.37,2013-02-20 09:25:00,
2013-02-20 04:30:00,23.6,20.8,29.61,NW,315,9.2,9.2,89,0.00,OVC,,0.00,WeatherDisplay:10.37,2013-02-20 09:30:00,
2013-02-20 04:35:00,23.3,20.6,29.61,NNE,22,11.5,11.5,89,0.00,OVC,,0.00,WeatherDisplay:10.37,2013-02-20 09:35:00,
2013-02-20 04:40:00,23.3,20.5,29.61,North,360,10.4,10.4,89,0.00,OVC,,0.00,WeatherDisplay:10.37,2013-02-20 09:40:00,
2013-02-20 04:45:00,22.9,20.2,29.61,NNE,22,12.7,12.7,89,0.00,OVC,,0.00,WeatherDisplay:10.37,2013-02-20 09:45:00,
2013-02-20 04:50:00,22.9,20.2,29.61,NW,315,9.2,9.2,89,0.00,OVC,,0.00,WeatherDisplay:10.37,2013-02-20 09:50:00,
2013-02-20 04:55:00,22.8,20.1,29.61,WNW,292,10.0,10.0,89,0.00,OVC,,0.00,WeatherDisplay:10.37,2013-02-20 09:55:00,
2013-02-20 05:00:00,22.9,20.2,29.61,NW,315,9.2,9.2,89,0.00,OVC,,0.00,WeatherDisplay:10.37,2013-02-20 10:00:00,
2013-02-20 05:05:00,23.0,20.2,29.63,North,360,11.5,11.5,89,0.00,OVC,,0.00,WeatherDisplay:10.37,2013-02-20 10:05:00,
2013-02-20 05:10:00,22.6,15.9,29.63,North,360,10.4,10.4,75,0.00,OVC,,0.00,WeatherDisplay:10.37,2013-02-20 10:10:00,
2013-02-20 05:15:00,23.0,16.3,29.63,WNW,292,4.6,4.6,75,0.00,OVC,,0.00,WeatherDisplay:10.37,2013-02-20 10:15:00,
2013-02-20 05:20:00,22.7,16.0,29.63,NNW,338,10.4,10.4,75,0.00,OVC,,0.00,WeatherDisplay:10.37,2013-02-20 10:20:00,
2013-02-20 05:25:00,22.9,16.1,29.63,North,360,6.9,6.9,75,0.00,OVC,,0.00,WeatherDisplay:10.37,2013-02-20 10:25:00,
2013-02-20 05:30:00,22.8,16.0,29.63,East,90,10.4,10.4,75,0.00,OVC,,0.00,WeatherDisplay:10.37,2013-02-20 10:30:00,
2013-02-20 05:35:00,23.0,16.3,29.63,WNW,292,8.1,8.1,75,0.00,OVC,,0.00,WeatherDisplay:10.37,2013-02-20 10:35:00,
2013-02-20 05:40:00,22.8,16.0,29.63,SE,135,6.9,6.9,75,0.00,OVC,,0.00,WeatherDisplay:10.37,2013-02-20 10:40:00,
2013-02-20 05:45:00,23.2,16.4,29.63,SSW,202,6.7,6.7,75,0.00,OVC,,0.00,WeatherDisplay:10.37,2013-02-20 10:45:00,
2013-02-20 05:50:00,23.3,16.6,29.63,West,270,9.8,9.8,75,0.00,OVC,,0.00,WeatherDisplay:10.37,2013-02-20 10:50:00,
2013-02-20 05:55:00,23.0,16.3,29.63,North,360,11.5,11.5,75,0.00,OVC,,0.00,WeatherDisplay:10.37,2013-02-20 10:55:00,
2013-02-20 06:00:00,22.7,15.9,29.63,NW,315,9.2,9.2,75,0.00,OVC,,0.00,WeatherDisplay:10.37,2013-02-20 11:00:00,
2013-02-20 06:05:00,22.2,15.5,29.62,North,360,5.8,5.8,75,0.00,OVC,,0.00,WeatherDisplay:10.37,2013-02-20 11:05:00,
2013-02-20 06:10:00,22.0,15.0,29.62,North,360,10.4,10.4,74,0.00,OVC,,0.00,WeatherDisplay:10.37,2013-02-20 11:10:00,
2013-02-20 06:15:00,21.8,14.7,29.62,WNW,292,5.9,5.9,74,0.00,OVC,,0.00,WeatherDisplay:10.37,2013-02-20 11:15:00,
2013-02-20 06:20:00,22.0,15.0,29.62,East,90,10.4,10.4,74,0.00,OVC,,0.00,WeatherDisplay:10.37,2013-02-20 11:20:00,
2013-02-20 06:25:00,21.9,14.9,29.62,NE,45,11.5,11.5,74,0.00,OVC,,0.00,WeatherDisplay:10.37,2013-02-20 11:25:00,
2013-02-20 06:30:00,21.8,14.8,29.62,NNW,338,13.8,13.8,74,0.00,OVC,,0.00,WeatherDisplay:10.37,2013-02-20 11:30:00,
2013-02-20 06:35:00,21.9,14.9,29.62,ENE,68,5.8,5.8,74,0.00,OVC,,0.00,WeatherDisplay:10.37,2013-02-20 11:35:00,
2013-02-20 06:40:00,22.0,15.0,29.62,SE,135,11.5,11.5,74,0.00,OVC,,0.00,WeatherDisplay:10.37,2013-02-20 11:40:00,
2013-02-20 06:45:00,22.3,15.0,29.62,ENE,68,3.5,3.5,73,0.00,OVC,,0.00,WeatherDisplay:10.37,2013-02-20 11:45:00,
2013-02-20 06:50:00,22.3,14.9,29.62,NW,315,9.2,9.2,73,0.00,OVC,,0.00,WeatherDisplay:10.37,2013-02-20 11:50:00,
2013-02-20 06:55:00,22.3,14.9,29.62,NNE,22,6.9,6.9,73,0.00,OVC,,0.00,WeatherDisplay:10.37,2013-02-20 11:55:00,
2013-02-20 07:00:00,22.3,15.0,29.62,NNE,22,10.4,10.4,73,0.00,OVC,,0.00,WeatherDisplay:10.37,2013-02-20 12:00:00,
2013-02-20 07:05:00,22.2,14.9,29.62,West,270,7.5,7.5,73,0.00,OVC,,0.00,WeatherDisplay:10.37,2013-02-20 12:05:00,
2013-02-20 07:10:00,22.4,15.1,29.62,ESE,112,4.6,4.6,73,0.00,OVC,,0.00,WeatherDisplay:10.37,2013-02-20 12:10:00,
2013-02-20 07:15:00,22.7,15.4,29.62,NNW,338,12.0,12.0,73,0.00,OVC,,0.00,WeatherDisplay:10.37,2013-02-20 12:15:00,
2013-02-20 07:20:00,22.6,15.3,29.62,East,90,6.9,6.9,73,0.00,OVC,,0.00,WeatherDisplay:10.37,2013-02-20 12:20:00,
2013-02-20 07:25:00,22.3,14.9,29.62,SSE,158,11.5,11.5,73,0.00,OVC,,0.00,WeatherDisplay:10.37,2013-02-20 12:25:00,
2013-02-20 07:30:00,22.7,15.3,29.62,West,270,15.0,15.0,73,0.00,OVC,,0.00,WeatherDisplay:10.37,2013-02-20 12:30:00,
2013-02-20 07:35:00,23.3,16.0,29.62,SE,135,10.4,10.4,73,0.00,OVC,,0.00,WeatherDisplay:10.37,2013-02-20 12:35:00,
2013-02-20 07:40:00,23.3,15.9,29.62,WNW,292,10.4,10.4,73,0.00,OVC,,0.00,WeatherDisplay:10.37,2013-02-20 12:40:00,
2013-02-20 07:45:00,23.3,15.9,29.62,ENE,68,6.9,6.9,73,0.00,OVC,,0.00,WeatherDisplay:10.37,2013-02-20 12:45:00,
2013-02-20 07:50:00,23.0,15.6,29.62,North,360,16.1,16.1,73,0.00,OVC,,0.00,WeatherDisplay:10.37,2013-02-20 12:50:00,
2013-02-20 07:55:00,23.5,16.1,29.62,NW,315,9.6,9.6,73,0.00,OVC,,0.00,WeatherDisplay:10.37,2013-02-20 12:55:00,
2013-02-20 08:00:00,23.7,16.3,29.62,SSE,158,6.0,6.0,73,0.00,OVC,,0.00,WeatherDisplay:10.37,2013-02-20 13:00:00,
2013-02-20 08:05:00,24.0,16.6,29.62,West,270,19.6,19.6,73,0.00,BKN,,0.00,WeatherDisplay:10.37,2013-02-20 13:05:00,
2013-02-20 08:10:00,24.4,17.0,29.62,NW,315,8.1,8.1,73,0.00,BKN,,0.00,WeatherDisplay:10.37,2013-02-20 13:10:00,
2013-02-20 08:16:00,24.4,23.1,29.62,WNW,292,10.4,10.4,95,0.00,BKN,,0.00,WeatherDisplay:10.37,2013-02-20 13:16:00,
2013-02-20 08:21:00,24.1,22.8,29.62,NNE,22,11.5,11.5,95,0.00,BKN,,0.00,WeatherDisplay:10.37,2013-02-20 13:21:00,
2013-02-20 08:26:00,24.1,22.8,29.62,North,360,10.4,10.4,95,0.00,BKN,,0.00,WeatherDisplay:10.37,2013-02-20 13:26:00,
2013-02-20 08:31:00,23.8,22.6,29.62,NNE,22,11.5,11.5,95,0.00,BKN,,0.00,WeatherDisplay:10.37,2013-02-20 13:31:00,
2013-02-20 08:36:00,23.7,22.5,29.62,NW,315,10.6,10.6,95,0.00,BKN,,0.00,WeatherDisplay:10.37,2013-02-20 13:36:00,
2013-02-20 08:41:00,23.9,22.7,29.62,NE,45,12.7,12.7,95,0.00,BKN,,0.00,WeatherDisplay:10.37,2013-02-20 13:41:00,
2013-02-20 08:46:00,23.7,17.0,29.62,East,90,7.3,7.3,75,0.00,BKN,,0.00,WeatherDisplay:10.37,2013-02-20 13:46:00,
2013-02-20 08:51:00,23.7,16.9,29.62,North,360,12.7,12.7,75,0.00,BKN,,0.00,WeatherDisplay:10.37,2013-02-20 13:51:00,
2013-02-20 08:56:00,23.8,17.0,29.62,SW,225,9.2,9.2,75,0.00,BKN,,0.00,WeatherDisplay:10.37,2013-02-20 13:56:00,
2013-02-20 09:01:00,24.1,-46.1,29.64,ESE,112,20.7,20.7,3,0.00,OVC,,0.00,WeatherDisplay:10.37,2013-02-20 14:01:00,
2013-02-20 09:06:00,23.8,16.4,29.64,NW,315,8.1,8.1,73,0.00,OVC,,0.00,WeatherDisplay:10.37,2013-02-20 14:06:00,
2013-02-20 09:11:00,23.9,16.5,29.64,West,270,13.8,13.8,73,0.00,OVC,,0.00,WeatherDisplay:10.37,2013-02-20 14:11:00,
2013-02-20 09:16:00,24.2,16.8,29.64,East,90,15.0,15.0,73,0.00,OVC,,0.00,WeatherDisplay:10.37,2013-02-20 14:16:00,
2013-02-20 09:21:00,24.7,17.3,29.64,West,270,5.8,5.8,73,0.00,OVC,,0.00,WeatherDisplay:10.37,2013-02-20 14:21:00,
2013-02-20 09:26:00,24.8,-20.7,29.64,NW,315,11.5,11.5,12,0.00,OVC,,0.00,WeatherDisplay:10.37,2013-02-20 14:26:00,
2013-02-20 09:31:00,24.5,5.1,29.64,NW,315,13.8,13.8,43,0.00,OVC,,0.00,WeatherDisplay:10.37,2013-02-20 14:31:00,
2013-02-20 09:37:00,24.9,8.4,29.64,NW,315,10.4,10.4,49,0.00,OVC,,0.00,WeatherDisplay:10.37,2013-02-20 14:37:00,
2013-02-20 09:42:00,24.8,24.3,29.64,NW,315,12.3,12.3,98,0.00,OVC,,0.00,WeatherDisplay:10.37,2013-02-20 14:42:00,
2013-02-20 09:47:00,24.8,23.8,29.64,West,270,4.6,4.6,96,0.00,OVC,,0.00,WeatherDisplay:10.37,2013-02-20 14:47:00,
2013-02-20 09:52:00,24.5,17.7,29.64,NNE,22,9.2,9.2,75,0.00,OVC,,0.00,WeatherDisplay:10.37,2013-02-20 14:52:00,
2013-02-20 09:57:00,23.7,16.9,29.64,NW,315,11.5,11.5,75,0.00,OVC,,0.00,WeatherDisplay:10.37,2013-02-20 14:57:00,
2013-02-20 10:02:00,23.0,16.3,29.65,West,270,10.4,10.4,75,0.00,OVC,,0.00,WeatherDisplay:10.37,2013-02-20 15:02:00,
2013-02-20 10:07:00,23.1,16.3,29.65,WNW,292,8.2,8.2,75,0.00,OVC,,0.00,WeatherDisplay:10.37,2013-02-20 15:07:00,
2013-02-20 10:12:00,23.5,-29.4,29.65,NE,45,9.2,9.2,8,0.00,OVC,,0.00,WeatherDisplay:10.37,2013-02-20 15:12:00,
2013-02-20 10:17:00,23.7,18.1,29.65,WNW,292,8.1,8.1,79,0.00,OVC,,0.00,WeatherDisplay:10.37,2013-02-20 15:17:00,
2013-02-20 10:22:00,24.4,18.8,29.65,NNW,338,8.1,8.1,79,0.00,OVC,,0.00,WeatherDisplay:10.37,2013-02-20 15:22:00,
2013-02-20 10:27:00,24.0,18.4,29.65,NNW,338,11.5,11.5,79,0.00,OVC,,0.00,WeatherDisplay:10.37,2013-02-20 15:27:00,
2013-02-20 10:32:00,23.5,17.9,27.28,West,270,10.4,10.4,79,0.00,OVC,,0.00,WeatherDisplay:10.37,2013-02-20 15:32:00,
2013-02-20 10:37:00,23.3,17.8,29.65,NW,315,16.1,16.1,79,0.00,OVC,,0.00,WeatherDisplay:10.37,2013-02-20 15:37:00,
2013-02-20 10:42:00,23.1,17.6,29.65,NNW,338,9.2,9.2,79,0.00,OVC,,0.00,WeatherDisplay:10.37,2013-02-20 15:42:00,
2013-02-20 10:47:00,23.7,18.2,29.65,NE,45,10.4,10.4,79,0.00,OVC,,0.00,WeatherDisplay:10.37,2013-02-20 15:47:00,
2013-02-20 10:52:00,24.6,19.0,29.65,NW,315,9.2,9.2,79,0.00,OVC,,0.00,WeatherDisplay:10.37,2013-02-20 15:52:00,
2013-02-20 10:57:00,24.6,19.0,29.65,NW,315,16.1,16.1,79,0.00,OVC,,0.00,WeatherDisplay:10.37,2013-02-20 15:57:00,
2013-02-20 11:02:00,25.1,21.2,27.28,SE,135,11.5,11.5,85,0.00,OVC,,0.00,WeatherDisplay:10.37,2013-02-20 16:02:00,
2013-02-20 11:07:00,24.9,21.0,29.65,WNW,292,13.8,13.8,85,0.00,OVC,,0.00,WeatherDisplay:10.37,2013-02-20 16:07:00,
2013-02-20 11:12:00,24.9,21.0,29.65,NE,45,11.5,11.5,85,0.00,OVC,,0.00,WeatherDisplay:10.37,2013-02-20 16:12:00,
2013-02-20 11:17:00,25.0,21.1,29.65,WNW,292,13.8,13.8,85,0.00,OVC,,0.00,WeatherDisplay:10.37,2013-02-20 16:17:00,
2013-02-20 11:22:00,25.5,21.6,29.65,SSW,202,15.0,15.0,85,0.00,OVC,,0.00,WeatherDisplay:10.37,2013-02-20 16:22:00,
2013-02-20 11:27:00,25.1,21.3,29.65,North,360,10.4,10.4,85,0.00,OVC,,0.00,WeatherDisplay:10.37,2013-02-20 16:27:00,
2013-02-20 11:32:00,25.1,21.3,27.28,North,360,11.5,11.5,85,0.00,OVC,,0.00,WeatherDisplay:10.37,2013-02-20 16:32:00,
2013-02-20 11:37:00,26.0,22.1,29.65,WNW,292,10.4,10.4,85,0.00,OVC,,0.00,WeatherDisplay:10.37,2013-02-20 16:37:00,
2013-02-20 11:42:00,27.2,23.3,29.65,East,90,11.5,11.5,85,0.00,OVC,,0.00,WeatherDisplay:10.37,2013-02-20 16:42:00,
2013-02-20 11:47:00,28.4,24.5,29.65,South,180,14.9,14.9,85,0.00,OVC,,0.00,WeatherDisplay:10.37,2013-02-20 16:47:00,
2013-02-20 11:52:00,28.5,24.5,29.65,NNE,22,10.4,10.4,85,0.00,OVC,,0.00,WeatherDisplay:10.37,2013-02-20 16:52:00,
2013-02-20 11:57:00,27.1,23.1,29.65,NW,315,26.5,26.5,85,0.00,OVC,,0.00,WeatherDisplay:10.37,2013-02-20 16:57:00,
2013-02-20 12:02:00,26.9,24.9,27.28,NNW,338,18.4,18.4,92,0.00,OVC,,0.00,WeatherDisplay:10.37,2013-02-20 17:02:00,
2013-02-20 12:07:00,26.5,24.5,29.65,WNW,292,11.7,11.7,92,0.00,OVC,,0.00,WeatherDisplay:10.37,2013-02-20 17:07:00,
2013-02-20 12:12:00,25.9,23.9,29.65,NW,315,10.4,10.4,92,0.00,OVC,,0.00,WeatherDisplay:10.37,2013-02-20 17:12:00,
2013-02-20 12:17:00,26.6,24.6,29.65,West,270,9.8,9.8,92,0.00,OVC,,0.00,WeatherDisplay:10.37,2013-02-20 17:17:00,
2013-02-20 12:22:00,27.6,25.6,29.65,NE,45,8.1,8.1,92,0.00,OVC,,0.00,WeatherDisplay:10.37,2013-02-20 17:22:00,
2013-02-20 12:27:00,29.2,27.2,29.65,NE,45,9.2,9.2,92,0.00,OVC,,0.00,WeatherDisplay:10.37,2013-02-20 17:27:00,
2013-02-20 12:32:00,28.5,26.5,27.28,North,360,8.1,8.1,92,0.00,OVC,,0.00,WeatherDisplay:10.37,2013-02-20 17:32:00,
2013-02-20 12:37:00,29.5,27.4,29.65,NW,315,8.1,8.1,92,0.00,OVC,,0.00,WeatherDisplay:10.37,2013-02-20 17:37:00,
2013-02-20 12:42:00,28.2,26.2,29.65,North,360,16.1,16.1,92,0.00,OVC,,0.00,WeatherDisplay:10.37,2013-02-20 17:42:00,
2013-02-20 12:47:00,27.8,25.8,29.65,NW,315,21.9,21.9,92,0.00,OVC,,0.00,WeatherDisplay:10.37,2013-02-20 17:47:00,
2013-02-20 12:52:00,27.8,25.8,29.65,WNW,292,15.0,15.0,92,0.00,OVC,,0.00,WeatherDisplay:10.37,2013-02-20 17:52:00,
2013-02-20 12:57:00,28.5,26.4,29.65,NW,315,7.3,7.3,92,0.00,OVC,,0.00,WeatherDisplay:10.37,2013-02-20 17:57:00,
2013-02-20 13:02:00,29.2,27.2,27.28,West,270,10.4,10.4,92,0.00,OVC,,0.00,WeatherDisplay:10.37,2013-02-20 18:02:00,
2013-02-20 13:07:00,29.7,22.1,29.65,WNW,292,19.6,19.6,73,0.00,OVC,,0.00,WeatherDisplay:10.37,2013-02-20 18:07:00,
2013-02-20 13:12:00,31.8,24.1,29.65,North,360,10.4,10.4,73,0.00,OVC,,0.00,WeatherDisplay:10.37,2013-02-20 18:12:00,
2013-02-20 13:17:00,31.8,24.2,29.65,NW,315,11.5,11.5,73,0.00,OVC,,0.00,WeatherDisplay:10.37,2013-02-20 18:17:00,
2013-02-20 13:22:00,31.5,23.8,29.65,NW,315,5.8,5.8,73,0.00,OVC,,0.00,WeatherDisplay:10.37,2013-02-20 18:22:00,
2013-02-20 13:27:00,30.6,23.0,29.65,North,360,6.9,6.9,73,0.00,OVC,,0.00,WeatherDisplay:10.37,2013-02-20 18:27:00,
2013-02-20 13:32:00,29.6,22.0,27.28,South,180,10.4,10.4,73,0.00,OVC,,0.00,WeatherDisplay:10.37,2013-02-20 18:32:00,
2013-02-20 13:37:00,27.6,20.1,29.65,NW,315,19.6,19.6,73,0.00,OVC,,0.00,WeatherDisplay:10.37,2013-02-20 18:37:00,
2013-02-20 13:42:00,26.4,18.9,29.65,NW,315,19.6,19.6,73,0.00,OVC,,0.00,WeatherDisplay:10.37,2013-02-20 18:42:00,
2013-02-20 13:47:00,25.5,18.0,29.65,West,270,17.3,17.3,73,0.00,OVC,,0.00,WeatherDisplay:10.37,2013-02-20 18:47:00,
2013-02-20 13:52:00,26.1,18.6,29.65,WNW,292,12.7,12.7,73,0.00,OVC,,0.00,WeatherDisplay:10.37,2013-02-20 18:52:00,
2013-02-20 13:57:00,26.8,19.3,29.65,NW,315,10.4,10.4,73,0.00,OVC,,0.00,WeatherDisplay:10.37,2013-02-20 18:57:00,
2013-02-20 14:02:00,26.6,19.1,27.28,NNW,338,13.8,13.8,73,0.00,OVC,,0.00,WeatherDisplay:10.37,2013-02-20 19:02:00,
2013-02-20 14:07:00,25.5,18.0,29.65,NNW,338,16.1,16.1,73,0.00,OVC,,0.00,WeatherDisplay:10.37,2013-02-20 19:07:00,
2013-02-20 14:12:00,24.9,17.5,29.65,North,360,20.7,20.7,73,0.00,OVC,,0.00,WeatherDisplay:10.37,2013-02-20 19:12:00,
2013-02-20 14:17:00,24.7,17.3,29.65,West,270,13.2,13.2,73,0.00,OVC,,0.00,WeatherDisplay:10.37,2013-02-20 19:17:00,
2013-02-20 14:22:00,24.7,17.3,29.65,NW,315,6.9,6.9,73,0.00,OVC,,0.00,WeatherDisplay:10.37,2013-02-20 19:22:00,
2013-02-20 14:27:00,24.0,16.6,29.65,North,360,11.5,11.5,73,0.00,OVC,,0.00,WeatherDisplay:10.37,2013-02-20 19:27:00,
2013-02-20 14:32:00,23.8,16.4,27.28,NE,45,12.7,12.7,73,0.00,OVC,,0.00,WeatherDisplay:10.37,2013-02-20 19:32:00,
2013-02-20 14:37:00,23.8,16.4,29.65,West,270,9.2,9.2,73,0.00,OVC,,0.00,WeatherDisplay:10.37,2013-02-20 19:37:00,
2013-02-20 14:42:00,23.9,16.5,29.65,North,360,8.2,8.2,73,0.00,OVC,,0.00,WeatherDisplay:10.37,2013-02-20 19:42:00,
2013-02-20 14:47:00,24.4,16.9,29.65,North,360,4.6,4.6,73,0.00,OVC,,0.00,WeatherDisplay:10.37,2013-02-20 19:47:00,
2013-02-20 14:52:00,24.4,16.9,29.65,West,270,15.0,15.0,73,0.00,OVC,,0.00,WeatherDisplay:10.37,2013-02-20 19:52:00,
2013-02-20 14:57:00,24.4,17.0,29.65,NW,315,25.3,25.3,73,0.00,OVC,,0.00,WeatherDisplay:10.37,2013-02-20 19:57:00,
2013-02-20 15:02:00,24.7,19.2,27.28,NW,315,18.4,18.4,79,0.00,OVC,,0.00,WeatherDisplay:10.37,2013-02-20 20:02:00,
2013-02-20 15:07:00,24.2,18.7,29.65,NNE,22,23.0,23.0,79,0.00,OVC,,0.00,WeatherDisplay:10.37,2013-02-20 20:07:00,
2013-02-20 15:12:00,24.5,18.9,29.65,NNW,338,13.2,13.2,79,0.00,OVC,,0.00,WeatherDisplay:10.37,2013-02-20 20:12:00,
2013-02-20 15:17:00,24.6,19.0,29.65,NNE,22,7.2,7.2,79,0.00,OVC,,0.00,WeatherDisplay:10.37,2013-02-20 20:17:00,
2013-02-20 15:22:00,25.4,19.8,29.65,WNW,292,11.5,11.5,79,0.00,OVC,,0.00,WeatherDisplay:10.37,2013-02-20 20:22:00,
2013-02-20 15:27:00,25.7,20.1,29.65,NW,315,15.0,15.0,79,0.00,OVC,,0.00,WeatherDisplay:10.37,2013-02-20 20:27:00,
2013-02-20 15:32:00,26.0,20.4,27.28,NNW,338,7.3,7.3,79,0.00,OVC,,0.00,WeatherDisplay:10.37,2013-02-20 20:32:00,
2013-02-20 15:37:00,25.4,19.8,29.65,NW,315,11.5,11.5,79,0.00,OVC,,0.00,WeatherDisplay:10.37,2013-02-20 20:37:00,
2013-02-20 15:42:00,25.5,19.9,29.65,SE,135,13.8,13.8,79,0.00,OVC,,0.00,WeatherDisplay:10.37,2013-02-20 20:42:00,
2013-02-20 15:47:00,25.9,20.3,29.65,NW,315,12.0,12.0,79,0.00,OVC,,0.00,WeatherDisplay:10.37,2013-02-20 20:47:00,
2013-02-20 15:52:00,26.0,20.4,29.65,West,270,20.7,20.7,79,0.00,OVC,,0.00,WeatherDisplay:10.37,2013-02-20 20:52:00,
2013-02-20 15:57:00,24.7,19.1,29.65,WNW,292,18.4,18.4,79,0.00,OVC,,0.00,WeatherDisplay:10.37,2013-02-20 20:57:00,
2013-02-20 16:02:00,24.0,18.4,27.28,North,360,13.9,13.9,79,0.00,OVC,,0.00,WeatherDisplay:10.37,2013-02-20 21:02:00,
2013-02-20 16:07:00,23.8,18.2,29.65,North,360,10.4,10.4,79,0.00,OVC,,0.00,WeatherDisplay:10.37,2013-02-20 21:07:00,
2013-02-20 16:12:00,23.8,18.2,29.65,NW,315,10.4,10.4,79,0.00,OVC,,0.00,WeatherDisplay:10.37,2013-02-20 21:12:00,
2013-02-20 16:17:00,23.8,-7.0,29.65,NW,315,10.7,10.7,25,0.00,OVC,,0.00,WeatherDisplay:10.37,2013-02-20 21:17:00,
2013-02-20 16:22:00,22.9,8.8,29.65,NW,315,16.0,16.0,54,0.00,OVC,,0.00,WeatherDisplay:10.37,2013-02-20 21:22:00,
2013-02-20 16:27:00,22.4,21.0,29.65,NNE,22,19.6,19.6,94,0.00,OVC,,0.00,WeatherDisplay:10.37,2013-02-20 21:27:00,
2013-02-20 16:32:00,22.3,21.1,27.28,NW,315,24.2,24.2,95,0.00,OVC,,0.00,WeatherDisplay:10.37,2013-02-20 21:32:00,
2013-02-20 16:37:00,22.1,17.4,29.65,NE,45,16.1,16.1,82,0.00,OVC,,0.00,WeatherDisplay:10.37,2013-02-20 21:37:00,
2013-02-20 16:42:00,22.0,17.0,29.65,WNW,292,22.4,22.4,81,0.00,OVC,,0.00,WeatherDisplay:10.37,2013-02-20 21:42:00,
2013-02-20 16:47:00,21.8,16.8,29.65,WNW,292,15.0,15.0,81,0.00,OVC,,0.00,WeatherDisplay:10.37,2013-02-20 21:47:00,
2013-02-20 16:52:00,21.7,16.7,29.65,WNW,292,13.8,13.8,81,0.00,OVC,,0.00,WeatherDisplay:10.37,2013-02-20 21:52:00,
2013-02-20 16:57:00,21.8,16.8,29.65,NNW,338,9.2,9.2,81,0.00,OVC,,0.00,WeatherDisplay:10.37,2013-02-20 21:57:00,
2013-02-20 17:02:00,21.9,17.0,27.28,East,90,9.2,9.2,81,0.00,OVC,,0.00,WeatherDisplay:10.37,2013-02-20 22:02:00,
2013-02-20 17:07:00,21.8,16.8,29.67,NNE,22,11.5,11.5,81,0.00,OVC,,0.00,WeatherDisplay:10.37,2013-02-20 22:07:00,
2013-02-20 17:12:00,21.5,16.6,29.67,NE,45,11.5,11.5,81,0.00,OVC,,0.00,WeatherDisplay:10.37,2013-02-20 22:12:00,
2013-02-20 17:17:00,21.3,13.0,29.67,NNW,338,12.7,12.7,70,0.00,OVC,,0.00,WeatherDisplay:10.37,2013-02-20 22:17:00,
2013-02-20 17:22:00,21.4,13.2,29.67,North,360,16.1,16.1,70,0.00,OVC,,0.00,WeatherDisplay:10.37,2013-02-20 22:22:00,
2013-02-20 17:28:00,20.6,12.4,29.67,NNW,338,9.2,9.2,70,0.00,OVC,,0.00,WeatherDisplay:10.37,2013-02-20 22:28:00,
2013-02-20 17:33:00,20.4,12.1,29.67,NW,315,6.9,6.9,70,0.00,OVC,,0.00,WeatherDisplay:10.37,2013-02-20 22:33:00,
2013-02-20 17:38:00,20.2,12.0,29.67,WSW,248,16.3,16.3,70,0.00,OVC,,0.00,WeatherDisplay:10.37,2013-02-20 22:38:00,
2013-02-20 17:43:00,20.1,11.9,29.67,WNW,292,9.2,9.2,70,0.00,OVC,,0.00,WeatherDisplay:10.37,2013-02-20 22:43:00,
2013-02-20 17:48:00,20.1,11.9,29.67,NW,315,16.1,16.1,70,0.00,OVC,,0.00,WeatherDisplay:10.37,2013-02-20 22:48:00,
2013-02-20 17:53:00,20.1,11.9,29.67,SSE,158,9.2,9.2,70,0.00,OVC,,0.00,WeatherDisplay:10.37,2013-02-20 22:53:00,
2013-02-20 17:58:00,20.1,11.9,29.67,NW,315,11.5,11.5,70,0.00,OVC,,0.00,WeatherDisplay:10.37,2013-02-20 22:58:00,
2013-02-20 18:03:00,20.1,11.5,29.70,North,360,8.1,9.5,69,0.00,BKN,,0.00,WeatherDisplay:10.37,2013-02-20 23:03:00,
2013-02-20 18:08:00,20.1,11.3,29.70,NE,45,9.2,9.2,68,0.00,BKN,,0.00,WeatherDisplay:10.37,2013-02-20 23:08:00,
2013-02-20 18:13:00,19.7,10.5,29.70,NW,315,11.5,11.5,67,0.00,BKN,,0.00,WeatherDisplay:10.37,2013-02-20 23:13:00,
2013-02-20 18:18:00,19.9,10.7,29.70,WNW,292,17.9,17.9,67,0.00,BKN,,0.00,WeatherDisplay:10.37,2013-02-20 23:18:00,
2013-02-20 18:23:00,20.0,10.8,29.70,NE,45,12.7,12.7,67,0.00,BKN,,0.00,WeatherDisplay:10.37,2013-02-20 23:23:00,
2013-02-20 18:28:00,20.3,10.7,29.70,WNW,292,5.8,5.8,66,0.00,BKN,,0.00,WeatherDisplay:10.37,2013-02-20 23:28:00,
2013-02-20 18:33:00,20.0,10.5,29.70,NNW,338,11.5,11.5,66,0.00,BKN,,0.00,WeatherDisplay:10.37,2013-02-20 23:33:00,
2013-02-20 18:38:00,19.6,10.0,29.70,NNE,22,10.4,10.4,66,0.00,BKN,,0.00,WeatherDisplay:10.37,2013-02-20 23:38:00,
2013-02-20 18:43:00,19.4,9.9,29.70,NW,315,20.2,20.2,66,0.00,BKN,,0.00,WeatherDisplay:10.37,2013-02-20 23:43:00,
2013-02-20 18:48:00,19.2,9.7,29.70,WNW,292,17.3,17.3,66,0.00,BKN,,0.00,WeatherDisplay:10.37,2013-02-20 23:48:00,
2013-02-20 18:53:00,19.1,9.6,29.70,NW,315,13.8,13.8,66,0.00,BKN,,0.00,WeatherDisplay:10.37,2013-02-20 23:53:00,
2013-02-20 18:58:00,19.1,9.6,29.70,NNW,338,10.4,10.4,66,0.00,BKN,,0.00,WeatherDisplay:10.37,2013-02-20 23:58:00,
2013-02-20 19:03:00,19.0,9.5,29.73,West,270,10.1,10.1,66,0.00,OVC,,0.00,WeatherDisplay:10.37,2013-02-21 00:03:00,
2013-02-20 19:09:00,18.7,9.2,29.73,NE,45,25.3,25.3,66,0.00,OVC,,0.00,WeatherDisplay:10.37,2013-02-21 00:09:00,
2013-02-20 19:15:00,18.7,14.4,29.73,NNW,338,13.8,13.8,83,0.00,OVC,,0.00,WeatherDisplay:10.37,2013-02-21 00:15:00,
2013-02-20 19:20:00,18.8,14.5,27.28,North,360,18.4,18.4,83,0.00,OVC,,0.00,WeatherDisplay:10.37,2013-02-21 00:20:00,
2013-02-20 19:25:00,18.6,14.3,29.73,NNW,338,26.5,26.5,83,0.00,OVC,,0.00,WeatherDisplay:10.37,2013-02-21 00:25:00,
2013-02-20 19:30:00,18.6,14.3,29.73,SE,135,10.4,10.4,83,0.00,OVC,,0.00,WeatherDisplay:10.37,2013-02-21 00:30:00,
2013-02-20 19:36:00,18.8,14.5,29.73,NW,315,10.4,10.4,83,0.00,OVC,,0.00,WeatherDisplay:10.37,2013-02-21 00:36:00,
2013-02-20 19:41:00,19.0,14.6,27.28,North,360,7.4,7.4,83,0.00,OVC,,0.00,WeatherDisplay:10.37,2013-02-21 00:41:00,
2013-02-20 19:46:00,18.7,14.4,29.73,NNE,22,9.2,9.2,83,0.00,OVC,,0.00,WeatherDisplay:10.37,2013-02-21 00:46:00,
2013-02-20 19:51:00,19.1,14.7,29.73,ESE,112,16.1,16.1,83,0.00,OVC,,0.00,WeatherDisplay:10.37,2013-02-21 00:51:00,
2013-02-20 19:56:00,19.1,14.7,29.73,WNW,292,11.5,11.5,83,0.00,OVC,,0.00,WeatherDisplay:10.37,2013-02-21 00:56:00,
2013-02-20 20:01:00,19.2,14.9,29.72,NW,315,23.0,23.0,83,0.00,OVC,,0.00,WeatherDisplay:10.37,2013-02-21 01:01:00,
2013-02-20 20:06:00,19.1,14.8,29.72,NNE,22,8.1,8.1,83,0.00,OVC,,0.00,WeatherDisplay:10.37,2013-02-21 01:06:00,
2013-02-20 20:11:00,19.1,14.7,27.28,NE,45,15.0,15.0,83,0.00,OVC,,0.00,WeatherDisplay:10.37,2013-02-21 01:11:00,
2013-02-20 20:16:00,19.1,13.7,29.72,NW,315,10.4,10.4,79,0.00,OVC,,0.00,WeatherDisplay:10.37,2013-02-21 01:16:00,
2013-02-20 20:21:00,19.2,14.9,29.72,NW,315,12.7,12.7,83,0.00,OVC,,0.00,WeatherDisplay:10.37,2013-02-21 01:21:00,
2013-02-20 20:26:00,19.2,14.9,29.72,North,360,21.9,21.9,83,0.00,OVC,,0.00,WeatherDisplay:10.37,2013-02-21 01:26:00,
2013-02-20 20:31:00,19.2,14.9,29.72,NE,45,13.8,13.8,83,0.00,OVC,,0.00,WeatherDisplay:10.37,2013-02-21 01:31:00,
2013-02-20 20:36:00,19.7,15.4,29.72,North,360,15.0,15.0,83,0.00,OVC,,0.00,WeatherDisplay:10.37,2013-02-21 01:36:00,
2013-02-20 20:41:00,19.6,15.3,27.28,NE,45,19.6,19.6,83,0.00,OVC,,0.00,WeatherDisplay:10.37,2013-02-21 01:41:00,
2013-02-20 20:47:00,19.4,13.9,29.72,NE,45,9.2,9.2,79,0.00,OVC,,0.00,WeatherDisplay:10.37,2013-02-21 01:47:00,
2013-02-20 20:52:00,19.4,13.9,29.72,NNW,338,10.4,10.4,79,0.00,OVC,,0.00,WeatherDisplay:10.37,2013-02-21 01:52:00,
2013-02-20 20:57:00,19.4,15.1,29.72,North,360,12.7,12.7,83,0.00,OVC,,0.00,WeatherDisplay:10.37,2013-02-21 01:57:00,
2013-02-20 21:02:00,19.4,8.5,29.73,NW,315,6.9,6.9,62,0.00,OVC,,0.00,WeatherDisplay:10.37,2013-02-21 02:02:00,
2013-02-20 21:08:00,19.3,15.0,29.73,North,360,17.3,17.3,83,0.00,OVC,,0.00,WeatherDisplay:10.37,2013-02-21 02:08:00,
2013-02-20 21:13:00,19.4,9.2,29.73,WNW,292,25.3,25.3,64,0.00,OVC,,0.00,WeatherDisplay:10.37,2013-02-21 02:13:00,
2013-02-20 21:18:00,19.3,9.1,29.73,NNE,22,10.4,10.4,64,0.00,OVC,,0.00,WeatherDisplay:10.37,2013-02-21 02:18:00,
2013-02-20 21:23:00,19.2,8.3,29.73,East,90,15.0,15.0,62,0.00,OVC,,0.00,WeatherDisplay:10.37,2013-02-21 02:23:00,
2013-02-20 21:28:00,19.5,8.5,29.73,North,360,20.7,20.7,62,0.00,OVC,,0.00,WeatherDisplay:10.37,2013-02-21 02:28:00,
2013-02-20 21:33:00,19.2,9.0,29.73,WNW,292,16.1,16.1,64,0.00,OVC,,0.00,WeatherDisplay:10.37,2013-02-21 02:33:00,
2013-02-20 21:38:00,19.3,9.1,29.73,West,270,17.3,17.3,64,0.00,OVC,,0.00,WeatherDisplay:10.37,2013-02-21 02:38:00,
2013-02-20 21:43:00,19.5,9.3,29.73,North,360,17.3,17.3,64,0.00,OVC,,0.00,WeatherDisplay:10.37,2013-02-21 02:43:00,
2013-02-20 21:48:00,19.5,9.3,29.73,WNW,292,19.6,19.6,64,0.00,OVC,,0.00,WeatherDisplay:10.37,2013-02-21 02:48:00,
2013-02-20 21:53:00,19.4,8.5,29.73,NNE,22,6.3,6.3,62,0.00,OVC,,0.00,WeatherDisplay:10.37,2013-02-21 02:53:00,
2013-02-20 21:58:00,19.5,9.3,29.73,NW,315,15.0,15.0,64,0.00,OVC,,0.00,WeatherDisplay:10.37,2013-02-21 02:58:00,
2013-02-20 22:03:00,19.5,8.5,29.73,WNW,292,19.6,19.6,62,0.00,OVC,,0.00,WeatherDisplay:10.37,2013-02-21 03:03:00,
2013-02-20 22:08:00,19.6,8.6,29.73,North,360,12.7,12.7,62,0.00,OVC,,0.00,WeatherDisplay:10.37,2013-02-21 03:08:00,
2013-02-20 22:13:00,19.7,8.8,29.73,NW,315,17.3,17.3,62,0.00,OVC,,0.00,WeatherDisplay:10.37,2013-02-21 03:13:00,
2013-02-20 22:18:00,19.6,8.7,29.73,WNW,292,17.3,17.3,62,0.00,OVC,,0.00,WeatherDisplay:10.37,2013-02-21 03:18:00,
2013-02-20 22:23:00,19.5,8.6,29.73,NW,315,31.1,31.1,62,0.00,OVC,,0.00,WeatherDisplay:10.37,2013-02-21 03:23:00,
2013-02-20 22:28:00,19.3,9.1,29.73,NNE,22,31.1,31.1,64,0.00,OVC,,0.00,WeatherDisplay:10.37,2013-02-21 03:28:00,
2013-02-20 22:33:00,19.5,8.5,29.73,WNW,292,23.0,23.0,62,0.00,OVC,,0.00,WeatherDisplay:10.37,2013-02-21 03:33:00,
2013-02-20 22:38:00,19.5,9.3,29.73,NNW,338,16.1,16.1,64,0.00,OVC,,0.00,WeatherDisplay:10.37,2013-02-21 03:38:00,
2013-02-20 22:43:00,19.5,8.6,29.73,WNW,292,30.4,30.4,62,0.00,OVC,,0.00,WeatherDisplay:10.37,2013-02-21 03:43:00,
2013-02-20 22:48:00,19.7,8.8,29.73,NW,315,13.8,13.8,62,0.00,OVC,,0.00,WeatherDisplay:10.37,2013-02-21 03:48:00,
2013-02-20 22:53:00,19.5,8.5,29.73,NNW,338,9.2,9.2,62,0.00,OVC,,0.00,WeatherDisplay:10.37,2013-02-21 03:53:00,
2013-02-20 22:58:00,19.7,9.5,29.73,North,360,21.9,21.9,64,0.00,OVC,,0.00,WeatherDisplay:10.37,2013-02-21 03:58:00,
2013-02-20 23:04:00,19.6,9.4,29.74,NW,315,23.0,23.0,64,0.00,OVC,,0.00,WeatherDisplay:10.37,2013-02-21 04:04:00,
2013-02-20 23:09:00,20.0,10.8,29.74,SE,135,10.4,10.4,67,0.00,OVC,,0.00,WeatherDisplay:10.37,2013-02-21 04:09:00,
2013-02-20 23:14:00,20.0,9.7,29.74,WNW,292,38.0,38.0,64,0.00,OVC,,0.00,WeatherDisplay:10.37,2013-02-21 04:14:00,
2013-02-20 23:19:00,19.9,10.7,29.74,NW,315,26.5,26.5,67,0.00,OVC,,0.00,WeatherDisplay:10.37,2013-02-21 04:19:00,
2013-02-20 23:24:00,19.9,9.7,29.74,ESE,112,12.7,12.7,64,0.00,OVC,,0.00,WeatherDisplay:10.37,2013-02-21 04:24:00,
2013-02-20 23:29:00,19.6,9.4,29.74,ENE,68,26.5,26.5,64,0.00,OVC,,0.00,WeatherDisplay:10.37,2013-02-21 04:29:00,
2013-02-20 23:34:00,19.5,10.3,29.74,NNW,338,9.2,9.2,67,0.00,OVC,,0.00,WeatherDisplay:10.37,2013-02-21 04:34:00,
2013-02-20 23:39:00,19.6,9.4,29.74,NE,45,12.7,12.7,64,0.00,OVC,,0.00,WeatherDisplay:10.37,2013-02-21 04:39:00,
2013-02-20 23:44:00,19.6,9.4,29.74,WNW,292,23.5,23.5,64,0.00,OVC,,0.00,WeatherDisplay:10.37,2013-02-21 04:44:00,
2013-02-20 23:49:00,19.2,10.0,29.74,WNW,292,19.8,19.8,67,0.00,OVC,,0.00,WeatherDisplay:10.37,2013-02-21 04:49:00,
2013-02-20 23:54:00,19.0,8.8,29.74,NW,315,20.7,20.7,64,0.00,OVC,,0.00,WeatherDisplay:10.37,2013-02-21 04:54:00,
2013-02-20 23:59:00,19.0,8.8,29.74,NE,45,16.1,16.1,64,0.00,OVC,,0.00,WeatherDisplay:10.37,2013-02-21 04:59:00,